Time,TemperatureF,DewpointF,PressureIn,WindDirection,WindDirectionDegrees,WindSpeedMPH,WindSpeedGustMPH,Humidity,HourlyPrecipIn,Conditions,Clouds,dailyrainin,SoftwareType,DateUTC
2013-03-29 00:03:00,41.0,35.0,30.23,WNW,300,0.0,-999.0,79,-99.99,,,-99.99,,2013-03-29 04:03:00,
2013-03-29 00:13:00,41.0,35.0,30.23,WNW,300,0.0,-999.0,79,-99.99,,,-99.99,,2013-03-29 04:13:00,
2013-03-29 00:22:00,40.0,35.0,30.23,WNW,300,0.0,-999.0,81,-99.99,,,-99.99,,2013-03-29 04:22:00,
2013-03-29 00:33:00,40.0,35.0,30.23,WNW,300,0.0,-999.0,82,-99.99,,,-99.99,,2013-03-29 04:33:00,
2013-03-29 00:43:00,40.0,35.0,30.23,WNW,300,0.0,-999.0,82,-99.99,,,-99.99,,2013-03-29 04:43:00,
2013-03-29 00:52:00,40.0,35.0,30.23,WNW,300,0.0,-999.0,83,-99.99,,,-99.99,,2013-03-29 04:52:00,
2013-03-29 01:03:00,39.0,35.0,30.23,WNW,300,0.0,-999.0,84,-99.99,,,-99.99,,2013-03-29 05:03:00,
2013-03-29 01:12:00,39.0,35.0,30.23,WNW,300,0.0,-999.0,84,-99.99,,,-99.99,,2013-03-29 05:12:00,
2013-03-29 01:23:00,39.0,35.0,30.23,WNW,300,0.0,-999.0,85,-99.99,,,-99.99,,2013-03-29 05:23:00,
2013-03-29 01:33:00,39.0,35.0,30.23,WNW,300,0.0,-999.0,86,-99.99,,,-99.99,,2013-03-29 05:33:00,
2013-03-29 01:43:00,39.0,35.0,30.23,WNW,300,0.0,-999.0,86,-99.99,,,-99.99,,2013-03-29 05:43:00,
2013-03-29 01:52:00,38.0,34.0,30.23,WNW,300,0.0,-999.0,87,-99.99,,,-99.99,,2013-03-29 05:52:00,
2013-03-29 02:03:00,38.0,34.0,30.24,WNW,300,0.0,-999.0,87,-99.99,,,-99.99,,2013-03-29 06:03:00,
2013-03-29 02:12:00,38.0,34.0,30.24,WNW,300,0.0,-999.0,87,-99.99,,,-99.99,,2013-03-29 06:12:00,
2013-03-29 02:23:00,37.0,34.0,30.24,WNW,300,0.0,-999.0,88,-99.99,,,-99.99,,2013-03-29 06:23:00,
2013-03-29 02:32:00,37.0,34.0,30.25,WNW,300,0.0,-999.0,88,-99.99,,,-99.99,,2013-03-29 06:32:00,
2013-03-29 02:42:00,37.0,34.0,30.25,WNW,300,0.0,-999.0,88,-99.99,,,-99.99,,2013-03-29 06:42:00,
2013-03-29 02:52:00,37.0,34.0,30.25,WNW,300,0.0,-999.0,89,-99.99,,,-99.99,,2013-03-29 06:52:00,
2013-03-29 03:03:00,37.0,34.0,30.25,WNW,300,0.0,-999.0,89,-99.99,,,-99.99,,2013-03-29 07:03:00,
2013-03-29 03:12:00,37.0,34.0,30.25,WNW,300,0.0,-999.0,89,-99.99,,,-99.99,,2013-03-29 07:12:00,
2013-03-29 03:22:00,36.0,33.0,30.25,WNW,300,0.0,-999.0,90,-99.99,,,-99.99,,2013-03-29 07:22:00,
2013-03-29 03:32:00,36.0,33.0,30.25,WNW,300,0.0,-999.0,90,-99.99,,,-99.99,,2013-03-29 07:32:00,
2013-03-29 03:42:00,36.0,33.0,30.25,WNW,300,0.0,-999.0,90,-99.99,,,-99.99,,2013-03-29 07:42:00,
2013-03-29 03:52:00,36.0,33.0,30.25,WNW,300,0.0,-999.0,90,-99.99,,,-99.99,,2013-03-29 07:52:00,
2013-03-29 04:02:00,35.0,33.0,30.25,WNW,300,0.0,-999.0,91,-99.99,,,-99.99,,2013-03-29 08:02:00,
2013-03-29 04:12:00,35.0,33.0,30.25,WNW,300,0.0,-999.0,91,-99.99,,,-99.99,,2013-03-29 08:12:00,
2013-03-29 04:22:00,35.0,33.0,30.25,WNW,300,0.0,-999.0,91,-99.99,,,-99.99,,2013-03-29 08:22:00,
2013-03-29 04:32:00,35.0,33.0,30.25,WNW,300,0.0,-999.0,91,-99.99,,,-99.99,,2013-03-29 08:32:00,
2013-03-29 04:42:00,35.0,33.0,30.25,WNW,300,0.0,-999.0,91,-99.99,,,-99.99,,2013-03-29 08:42:00,
2013-03-29 04:52:00,35.0,33.0,30.25,WNW,300,0.0,-999.0,92,-99.99,,,-99.99,,2013-03-29 08:52:00,
2013-03-29 05:02:00,35.0,33.0,30.25,WNW,300,0.0,-999.0,92,-99.99,,,-99.99,,2013-03-29 09:02:00,
2013-03-29 05:13:00,35.0,33.0,30.25,WNW,300,0.0,-999.0,92,-99.99,,,-99.99,,2013-03-29 09:13:00,
2013-03-29 05:22:00,35.0,33.0,30.25,WNW,300,0.0,-999.0,92,-99.99,,,-99.99,,2013-03-29 09:22:00,
2013-03-29 05:33:00,34.0,32.0,30.25,WNW,300,0.0,-999.0,92,-99.99,,,-99.99,,2013-03-29 09:33:00,
2013-03-29 05:43:00,34.0,32.0,30.25,WNW,300,0.0,-999.0,92,-99.99,,,-99.99,,2013-03-29 09:43:00,
2013-03-29 05:52:00,34.0,32.0,30.25,WNW,300,0.0,-999.0,92,-99.99,,,-99.99,,2013-03-29 09:52:00,
2013-03-29 06:03:00,34.0,32.0,30.26,WNW,300,0.0,-999.0,93,-99.99,,,-99.99,,2013-03-29 10:03:00,
2013-03-29 06:12:00,34.0,32.0,30.26,WNW,300,0.0,-999.0,93,-99.99,,,-99.99,,2013-03-29 10:12:00,
2013-03-29 06:23:00,34.0,32.0,30.26,WNW,300,0.0,-999.0,93,-99.99,,,-99.99,,2013-03-29 10:23:00,
2013-03-29 06:33:00,34.0,32.0,30.27,WNW,300,0.0,-999.0,93,-99.99,,,-99.99,,2013-03-29 10:33:00,
2013-03-29 06:42:00,34.0,32.0,30.27,WNW,300,0.0,-999.0,93,-99.99,,,-99.99,,2013-03-29 10:42:00,
2013-03-29 06:52:00,34.0,32.0,30.28,WNW,300,0.0,-999.0,93,-99.99,,,-99.99,,2013-03-29 10:52:00,
2013-03-29 07:04:00,34.0,32.0,30.28,WNW,300,0.0,-999.0,93,-99.99,,,-99.99,,2013-03-29 11:04:00,
2013-03-29 07:12:00,34.0,32.0,30.28,WNW,300,0.0,-999.0,93,-99.99,,,-99.99,,2013-03-29 11:12:00,
2013-03-29 07:23:00,34.0,32.0,30.28,WNW,300,0.0,-999.0,93,-99.99,,,-99.99,,2013-03-29 11:23:00,
2013-03-29 07:33:00,34.0,32.0,30.28,WNW,300,0.0,-999.0,93,-99.99,,,-99.99,,2013-03-29 11:33:00,
2013-03-29 07:42:00,34.0,32.0,30.28,WNW,300,0.0,-999.0,93,-99.99,,,-99.99,,2013-03-29 11:42:00,
2013-03-29 07:52:00,34.0,32.0,30.29,WNW,300,0.0,-999.0,93,-99.99,,,-99.99,,2013-03-29 11:52:00,
2013-03-29 08:03:00,34.0,32.0,30.29,WNW,300,0.0,-999.0,93,-99.99,,,-99.99,,2013-03-29 12:03:00,
2013-03-29 08:12:00,34.0,32.0,30.29,WNW,300,0.0,-999.0,93,-99.99,,,-99.99,,2013-03-29 12:12:00,
2013-03-29 08:22:00,34.0,32.0,30.29,WNW,300,0.0,-999.0,93,-99.99,,,-99.99,,2013-03-29 12:22:00,
2013-03-29 08:32:00,36.0,34.0,30.29,WNW,300,0.0,-999.0,93,-99.99,,,-99.99,,2013-03-29 12:32:00,
2013-03-29 08:42:00,36.0,34.0,30.29,WNW,300,0.0,-999.0,93,-99.99,,,-99.99,,2013-03-29 12:42:00,
2013-03-29 08:52:00,37.0,35.0,30.29,WNW,300,0.0,-999.0,93,-99.99,,,-99.99,,2013-03-29 12:52:00,
2013-03-29 09:03:00,39.0,37.0,30.29,WNW,300,0.0,-999.0,92,-99.99,,,-99.99,,2013-03-29 13:03:00,
2013-03-29 09:12:00,39.0,37.0,30.29,WNW,300,0.0,-999.0,92,-99.99,,,-99.99,,2013-03-29 13:12:00,
2013-03-29 09:22:00,41.0,37.0,30.30,WNW,298,0.0,-999.0,86,-99.99,,,-99.99,,2013-03-29 13:22:00,
2013-03-29 09:33:00,45.0,38.0,30.31,WNW,284,0.0,-999.0,75,-99.99,,,-99.99,,2013-03-29 13:33:00,
2013-03-29 09:42:00,45.0,38.0,30.31,WNW,284,0.0,-999.0,75,-99.99,,,-99.99,,2013-03-29 13:42:00,
2013-03-29 09:52:00,48.0,38.0,30.31,WNW,283,0.0,-999.0,68,-99.99,,,-99.99,,2013-03-29 13:52:00,
2013-03-29 10:03:00,50.0,38.0,30.31,SSW,205,0.0,-999.0,62,-99.99,,,-99.99,,2013-03-29 14:03:00,
2013-03-29 10:12:00,50.0,38.0,30.31,SSW,205,0.0,-999.0,62,-99.99,,,-99.99,,2013-03-29 14:12:00,
2013-03-29 10:22:00,52.0,37.0,30.31,SE,130,1.0,-999.0,57,-99.99,,,-99.99,,2013-03-29 14:22:00,
2013-03-29 10:33:00,53.0,36.0,30.31,ESE,121,0.0,-999.0,53,-99.99,,,-99.99,,2013-03-29 14:33:00,
2013-03-29 10:42:00,53.0,36.0,30.31,ESE,121,0.0,-999.0,53,-99.99,,,-99.99,,2013-03-29 14:42:00,
2013-03-29 10:52:00,55.0,37.0,30.31,NNW,327,0.0,-999.0,50,-99.99,,,-99.99,,2013-03-29 14:52:00,
2013-03-29 11:02:00,57.0,38.0,30.31,NNW,327,0.0,-999.0,48,-99.99,,,-99.99,,2013-03-29 15:02:00,
2013-03-29 11:12:00,57.0,38.0,30.31,NNW,327,0.0,-999.0,48,-99.99,,,-99.99,,2013-03-29 15:12:00,
2013-03-29 11:22:00,58.0,37.0,30.30,WNW,296,0.0,-999.0,45,-99.99,,,-99.99,,2013-03-29 15:22:00,
2013-03-29 11:33:00,60.0,38.0,30.30,West,263,0.0,-999.0,44,-99.99,,,-99.99,,2013-03-29 15:33:00,
2013-03-29 11:43:00,60.0,38.0,30.30,West,263,0.0,-999.0,44,-99.99,,,-99.99,,2013-03-29 15:43:00,
2013-03-29 11:52:00,61.0,36.0,30.30,NW,315,1.0,-999.0,40,-99.99,,,-99.99,,2013-03-29 15:52:00,
2013-03-29 12:03:00,62.0,36.0,30.29,WNW,286,1.0,-999.0,38,-99.99,,,-99.99,,2013-03-29 16:03:00,
2013-03-29 12:13:00,62.0,36.0,30.29,WNW,286,1.0,-999.0,38,-99.99,,,-99.99,,2013-03-29 16:13:00,
2013-03-29 12:23:00,62.0,37.0,30.29,SSE,156,0.0,-999.0,39,-99.99,,,-99.99,,2013-03-29 16:23:00,
2013-03-29 12:33:00,62.0,35.0,30.29,WNW,295,0.0,-999.0,37,-99.99,,,-99.99,,2013-03-29 16:33:00,
2013-03-29 12:42:00,62.0,35.0,30.29,WNW,295,0.0,-999.0,37,-99.99,,,-99.99,,2013-03-29 16:42:00,
2013-03-29 12:52:00,63.0,36.0,30.28,WNW,296,2.0,-999.0,37,-99.99,,,-99.99,,2013-03-29 16:52:00,
2013-03-29 13:03:00,64.0,36.0,30.28,WSW,255,1.0,-999.0,35,-99.99,,,-99.99,,2013-03-29 17:03:00,
2013-03-29 13:12:00,64.0,36.0,30.28,WSW,255,1.0,-999.0,35,-99.99,,,-99.99,,2013-03-29 17:12:00,
2013-03-29 13:23:00,65.0,34.0,30.28,WSW,253,1.0,-999.0,32,-99.99,,,-99.99,,2013-03-29 17:23:00,
2013-03-29 13:33:00,63.0,33.0,30.27,NNW,329,1.0,-999.0,32,-99.99,,,-99.99,,2013-03-29 17:33:00,
2013-03-29 13:43:00,63.0,33.0,30.27,NNW,329,1.0,-999.0,32,-99.99,,,-99.99,,2013-03-29 17:43:00,
2013-03-29 13:52:00,65.0,34.0,30.26,SSW,205,1.0,-999.0,32,-99.99,,,-99.99,,2013-03-29 17:52:00,
2013-03-29 14:02:00,65.0,36.0,30.25,West,259,1.0,-999.0,34,-99.99,,,-99.99,,2013-03-29 18:02:00,
2013-03-29 14:12:00,65.0,36.0,30.25,West,259,1.0,-999.0,34,-99.99,,,-99.99,,2013-03-29 18:12:00,
2013-03-29 14:23:00,66.0,35.0,30.24,NW,313,1.0,-999.0,32,-99.99,,,-99.99,,2013-03-29 18:23:00,
2013-03-29 14:32:00,66.0,34.0,30.23,West,269,2.0,-999.0,31,-99.99,,,-99.99,,2013-03-29 18:32:00,
2013-03-29 14:42:00,66.0,34.0,30.23,West,269,2.0,-999.0,31,-99.99,,,-99.99,,2013-03-29 18:42:00,
2013-03-29 14:52:00,66.0,34.0,30.23,East,88,0.0,-999.0,30,-99.99,,,-99.99,,2013-03-29 18:52:00,
2013-03-29 15:03:00,66.0,34.0,30.22,WNW,295,1.0,-999.0,30,-99.99,,,-99.99,,2013-03-29 19:03:00,
2013-03-29 15:12:00,68.0,35.0,30.22,WNW,290,2.0,-999.0,30,-99.99,,,-99.99,,2013-03-29 19:12:00,
2013-03-29 15:23:00,68.0,35.0,30.22,WNW,290,2.0,-999.0,30,-99.99,,,-99.99,,2013-03-29 19:23:00,
2013-03-29 15:33:00,68.0,35.0,30.20,SSW,200,1.0,-999.0,29,-99.99,,,-99.99,,2013-03-29 19:33:00,
2013-03-29 15:42:00,68.0,35.0,30.20,SSW,200,1.0,-999.0,29,-99.99,,,-99.99,,2013-03-29 19:42:00,
2013-03-29 15:52:00,68.0,35.0,30.19,WNW,293,1.0,-999.0,29,-99.99,,,-99.99,,2013-03-29 19:52:00,
2013-03-29 16:03:00,66.0,33.0,30.19,SSE,155,1.0,-999.0,29,-99.99,,,-99.99,,2013-03-29 20:03:00,
2013-03-29 16:12:00,66.0,33.0,30.19,SSE,155,1.0,-999.0,29,-99.99,,,-99.99,,2013-03-29 20:12:00,
2013-03-29 16:22:00,67.0,32.0,30.18,WSW,257,2.0,-999.0,27,-99.99,,,-99.99,,2013-03-29 20:22:00,
2013-03-29 16:33:00,67.0,34.0,30.18,South,186,2.0,-999.0,29,-99.99,,,-99.99,,2013-03-29 20:33:00,
2013-03-29 16:42:00,67.0,34.0,30.18,South,186,2.0,-999.0,29,-99.99,,,-99.99,,2013-03-29 20:42:00,
2013-03-29 16:52:00,68.0,34.0,30.17,West,275,2.0,-999.0,28,-99.99,,,-99.99,,2013-03-29 20:52:00,
2013-03-29 17:02:00,68.0,33.0,30.17,WSW,240,1.0,-999.0,27,-99.99,,,-99.99,,2013-03-29 21:02:00,
2013-03-29 17:12:00,68.0,33.0,30.17,WSW,240,1.0,-999.0,27,-99.99,,,-99.99,,2013-03-29 21:12:00,
2013-03-29 17:22:00,67.0,33.0,30.17,NNW,341,1.0,-999.0,28,-99.99,,,-99.99,,2013-03-29 21:22:00,
2013-03-29 17:33:00,67.0,32.0,30.17,SW,228,1.0,-999.0,27,-99.99,,,-99.99,,2013-03-29 21:33:00,
2013-03-29 17:42:00,67.0,32.0,30.17,SW,228,1.0,-999.0,27,-99.99,,,-99.99,,2013-03-29 21:42:00,
2013-03-29 17:53:00,67.0,34.0,30.16,SSW,205,0.0,-999.0,29,-99.99,,,-99.99,,2013-03-29 21:53:00,
2013-03-29 18:03:00,66.0,38.0,30.16,South,169,1.0,-999.0,36,-99.99,,,-99.99,,2013-03-29 22:03:00,
2013-03-29 18:13:00,66.0,38.0,30.16,South,169,1.0,-999.0,36,-99.99,,,-99.99,,2013-03-29 22:13:00,
2013-03-29 18:23:00,65.0,41.0,30.16,SE,141,1.0,-999.0,41,-99.99,,,-99.99,,2013-03-29 22:23:00,
2013-03-29 18:33:00,63.0,40.0,30.16,West,269,1.0,-999.0,43,-99.99,,,-99.99,,2013-03-29 22:33:00,
2013-03-29 18:42:00,63.0,40.0,30.16,West,269,1.0,-999.0,43,-99.99,,,-99.99,,2013-03-29 22:42:00,
2013-03-29 18:53:00,62.0,40.0,30.16,South,178,2.0,-999.0,45,-99.99,,,-99.99,,2013-03-29 22:53:00,
2013-03-29 19:03:00,61.0,40.0,30.16,ESE,106,1.0,-999.0,45,-99.99,,,-99.99,,2013-03-29 23:03:00,
2013-03-29 19:12:00,61.0,40.0,30.16,ESE,106,1.0,-999.0,45,-99.99,,,-99.99,,2013-03-29 23:12:00,
2013-03-29 19:22:00,61.0,40.0,30.17,South,178,0.0,-999.0,45,-99.99,,,-99.99,,2013-03-29 23:22:00,
2013-03-29 19:32:00,59.0,39.0,30.17,South,190,1.0,-999.0,47,-99.99,,,-99.99,,2013-03-29 23:32:00,
2013-03-29 19:42:00,59.0,39.0,30.17,South,190,1.0,-999.0,47,-99.99,,,-99.99,,2013-03-29 23:42:00,
2013-03-29 19:52:00,58.0,39.0,30.18,SE,146,0.0,-999.0,49,-99.99,,,-99.99,,2013-03-29 23:52:00,
2013-03-29 20:03:00,57.0,40.0,30.19,SE,146,0.0,-999.0,52,-99.99,,,-99.99,,2013-03-30 00:03:00,
2013-03-29 20:12:00,57.0,40.0,30.19,SE,146,0.0,-999.0,52,-99.99,,,-99.99,,2013-03-30 00:12:00,
2013-03-29 20:22:00,56.0,40.0,30.19,SE,145,0.0,-999.0,55,-99.99,,,-99.99,,2013-03-30 00:22:00,
2013-03-29 20:32:00,55.0,40.0,30.20,SE,142,0.0,-999.0,57,-99.99,,,-99.99,,2013-03-30 00:32:00,
2013-03-29 20:42:00,55.0,40.0,30.20,SE,142,0.0,-999.0,57,-99.99,,,-99.99,,2013-03-30 00:42:00,
2013-03-29 20:52:00,55.0,41.0,30.20,SE,142,0.0,-999.0,59,-99.99,,,-99.99,,2013-03-30 00:52:00,
2013-03-29 21:03:00,54.0,40.0,30.20,SE,143,0.0,-999.0,60,-99.99,,,-99.99,,2013-03-30 01:03:00,
2013-03-29 21:12:00,54.0,40.0,30.20,SE,143,0.0,-999.0,60,-99.99,,,-99.99,,2013-03-30 01:12:00,
2013-03-29 21:22:00,53.0,40.0,30.20,SE,143,0.0,-999.0,62,-99.99,,,-99.99,,2013-03-30 01:22:00,
2013-03-29 21:33:00,53.0,41.0,30.21,SE,143,0.0,-999.0,63,-99.99,,,-99.99,,2013-03-30 01:33:00,
2013-03-29 21:43:00,53.0,41.0,30.21,SE,143,0.0,-999.0,63,-99.99,,,-99.99,,2013-03-30 01:43:00,
2013-03-29 21:52:00,52.0,41.0,30.20,SE,142,0.0,-999.0,66,-99.99,,,-99.99,,2013-03-30 01:52:00,
2013-03-29 22:03:00,51.0,41.0,30.21,SE,142,0.0,-999.0,68,-99.99,,,-99.99,,2013-03-30 02:03:00,
2013-03-29 22:12:00,51.0,41.0,30.21,SE,142,0.0,-999.0,68,-99.99,,,-99.99,,2013-03-30 02:12:00,
2013-03-29 22:22:00,51.0,41.0,30.21,SE,143,0.0,-999.0,69,-99.99,,,-99.99,,2013-03-30 02:22:00,
2013-03-29 22:33:00,50.0,41.0,30.21,SE,143,0.0,-999.0,71,-99.99,,,-99.99,,2013-03-30 02:33:00,
2013-03-29 22:42:00,50.0,41.0,30.21,SE,143,0.0,-999.0,71,-99.99,,,-99.99,,2013-03-30 02:42:00,
2013-03-29 22:52:00,50.0,42.0,30.21,SE,143,0.0,-999.0,73,-99.99,,,-99.99,,2013-03-30 02:52:00,
2013-03-29 23:03:00,49.0,41.0,30.22,SE,142,0.0,-999.0,75,-99.99,,,-99.99,,2013-03-30 03:03:00,
2013-03-29 23:12:00,49.0,41.0,30.22,SE,142,0.0,-999.0,75,-99.99,,,-99.99,,2013-03-30 03:12:00,
2013-03-29 23:22:00,49.0,41.0,30.22,SE,142,0.0,-999.0,75,-99.99,,,-99.99,,2013-03-30 03:22:00,
2013-03-29 23:33:00,48.0,41.0,30.22,SE,142,0.0,-999.0,77,-99.99,,,-99.99,,2013-03-30 03:33:00,
2013-03-29 23:43:00,48.0,41.0,30.22,SE,142,0.0,-999.0,77,-99.99,,,-99.99,,2013-03-30 03:43:00,
2013-03-29 23:53:00,48.0,42.0,30.21,SE,143,0.0,-999.0,79,-99.99,,,-99.99,,2013-03-30 03:53:00,